Weather History for KSDA - April, 2012

Change the Weather History Date:

Thursday, April 26, 2012

  Actual Average (KOMA) Record (KOMA)
Temperature  
Mean Temperature 60 °F 56 °F  
Max Temperature 73 °F 67 °F 94 °F (1989)
Min Temperature 48 °F 44 °F 29 °F (1931)
Degree Days  
Heating Degree Days 4 10  
Month to date heating degree days 375  
Since 1 July heating degree days 5964  
Cooling Degree Days 0 1  
Month to date cooling degree days 10  
Year to date cooling degree days 11  
Growing Degree Days 10 (Base 50)    
Moisture  
Dew Point 41 °F    
Average Humidity 47    
Maximum Humidity 82    
Minimum Humidity 27    
Precipitation  
Precipitation 0.00 in 0.12 in 1.73 in (1991)
Month to date precipitation 2.47  
Year to date precipitation 6.03  
Snow  
Snow 0.00 in 0.00 in - ()
Month to date snowfall 0.9  
Since 1 July snowfall 26.3  
Snow Depth -    
Sea Level Pressure  
Sea Level Pressure 29.97 in    
Wind  
Wind Speed 6 mph (ENE)    
Max Wind Speed 17 mph    
Max Gust Speed 22 mph    
Visibility 10 miles    
Events      
T = Trace of Precipitation, MM = Missing Value Source: NWS Daily Summary

Daily Weather History Graph

Daily Weather History Graph

Search for Another Location

Airport or City:

Trip Planner

Search our weather history database for the weather conditions in past years. The results will help you decide how hot, cold, wet, or windy it might be!

Date:

Astronomy

Apr. 26, 2012 Rise Set
Actual Time 6:26 AM CDT 8:13 PM CDT
Civil Twilight 5:56 AM CDT 8:42 PM CDT
Nautical Twilight 5:21 AM CDT 9:18 PM CDT
Astronomical Twilight 4:43 AM CDT 9:56 PM CDT
Moon 10:05 AM CDT (4/26) 12:19 AM CDT (4/26)
Length of Visible Light 14h 45m
Length of Day
13h 47m
Waxing Crescent, 24% of the Moon is Illuminated
Apr 26
Waxing Crescent
Apr 29
First Quarter
May 5
Full
May 12
Last Quarter
May 20
New

Hourly Weather History & Observations

Time (CDT) Temp. Dew Point Humidity Pressure Visibility Wind Dir Wind Speed Gust Speed Precip Events Conditions
12:15 AM 64.4 °F 39.2 °F 40% 29.80 in 10.0 mi North 5.8 mph - N/A   Scattered Clouds
12:35 AM 64.4 °F 39.2 °F 40% 29.81 in 10.0 mi North 4.6 mph - N/A   Scattered Clouds
12:55 AM 64.4 °F 39.2 °F 40% 29.82 in 10.0 mi Calm Calm - N/A   Clear
1:15 AM 62.6 °F 39.2 °F 42% 29.83 in 10.0 mi NE 3.5 mph - N/A   Clear
1:35 AM 62.6 °F 39.2 °F 42% 29.83 in 10.0 mi Calm Calm - N/A   Scattered Clouds
1:55 AM 60.8 °F 41.0 °F 48% 29.84 in 10.0 mi Calm Calm - N/A   Scattered Clouds
2:35 AM 55.4 °F 42.8 °F 63% 29.83 in 10.0 mi Calm Calm - N/A   Clear
2:55 AM 55.4 °F 42.8 °F 63% 29.83 in 10.0 mi Calm Calm - N/A   Clear
3:15 AM 53.6 °F 42.8 °F 67% 29.84 in 10.0 mi Calm Calm - N/A   Clear
3:35 AM 53.6 °F 42.8 °F 67% 29.84 in 10.0 mi Calm Calm - N/A   Clear
3:55 AM 51.8 °F 42.8 °F 71% 29.85 in 10.0 mi SW 3.5 mph - N/A   Clear
4:15 AM 50.0 °F 42.8 °F 76% 29.86 in 10.0 mi Calm Calm - N/A   Scattered Clouds
4:35 AM 51.8 °F 42.8 °F 71% 29.87 in 10.0 mi Calm Calm - N/A   Clear
4:55 AM 51.8 °F 42.8 °F 71% 29.88 in 10.0 mi Calm Calm - N/A   Clear
5:15 AM 48.2 °F 42.8 °F 82% 29.88 in 10.0 mi Calm Calm - N/A   Scattered Clouds
5:35 AM 50.0 °F 42.8 °F 76% 29.89 in 10.0 mi Calm Calm - N/A   Scattered Clouds
5:55 AM 48.2 °F 42.8 °F 82% 29.90 in 10.0 mi Calm Calm - N/A   Clear
6:15 AM 48.2 °F 42.8 °F 82% 29.91 in 10.0 mi North 4.6 mph - N/A   Clear
6:35 AM 51.8 °F 44.6 °F 76% 29.93 in 10.0 mi Calm Calm - N/A   Clear
7:15 AM 51.8 °F 44.6 °F 76% 29.95 in 10.0 mi North 3.5 mph - N/A   Clear
7:35 AM 55.4 °F 46.4 °F 72% 29.96 in 10.0 mi NNE 6.9 mph - N/A   Clear
7:55 AM 57.2 °F 46.4 °F 67% 29.97 in 10.0 mi NNE 10.4 mph - N/A   Clear
8:15 AM 60.8 °F 46.4 °F 59% 29.97 in 10.0 mi NE 16.1 mph 19.6 mph N/A   Clear
8:35 AM 60.8 °F 48.2 °F 63% 29.98 in 10.0 mi NE 15.0 mph 20.7 mph N/A   Clear
8:55 AM 62.6 °F 48.2 °F 59% 29.99 in 10.0 mi NE 16.1 mph 21.9 mph N/A   Clear
9:15 AM 64.4 °F 48.2 °F 56% 30.00 in 10.0 mi NE 11.5 mph - N/A   Clear
9:35 AM 64.4 °F 46.4 °F 52% 30.00 in 10.0 mi NE 17.3 mph 21.9 mph N/A   Clear
9:55 AM 64.4 °F 48.2 °F 56% 30.01 in 10.0 mi NE 15.0 mph 18.4 mph N/A   Clear
10:15 AM 66.2 °F 46.4 °F 49% 30.02 in 10.0 mi NE 13.8 mph 20.7 mph N/A   Clear
10:35 AM 66.2 °F 46.4 °F 49% 30.02 in 10.0 mi NE 9.2 mph 15.0 mph N/A   Clear
10:55 AM 68.0 °F 46.4 °F 46% 30.03 in 10.0 mi NE 10.4 mph 17.3 mph N/A   Clear
11:15 AM 69.8 °F 44.6 °F 40% 30.03 in 10.0 mi NE 11.5 mph 17.3 mph N/A   Clear
11:35 AM 69.8 °F 42.8 °F 38% 30.03 in 10.0 mi NE 12.7 mph 18.4 mph N/A   Clear
11:55 AM 69.8 °F 42.8 °F 38% 30.03 in 10.0 mi NE 9.2 mph - N/A   Clear
12:35 PM 71.6 °F 39.2 °F 31% 30.04 in 10.0 mi NNE 13.8 mph 17.3 mph N/A   Clear
12:55 PM 71.6 °F 39.2 °F 31% 30.03 in 10.0 mi North 13.8 mph - N/A   Clear
1:15 PM 71.6 °F 39.2 °F 31% 30.03 in 10.0 mi NE 10.4 mph 17.3 mph N/A   Clear
1:35 PM 71.6 °F 39.2 °F 31% 30.03 in 10.0 mi NE 8.1 mph 16.1 mph N/A   Clear
1:55 PM 71.6 °F 39.2 °F 31% 30.03 in 10.0 mi ENE 10.4 mph 16.1 mph N/A   Clear
2:15 PM 71.6 °F 37.4 °F 29% 30.02 in 10.0 mi NE 9.2 mph - N/A   Clear
2:35 PM 73.4 °F 37.4 °F 27% 30.03 in 10.0 mi NNE 10.4 mph 16.1 mph N/A   Clear
2:55 PM 71.6 °F 35.6 °F 27% 30.03 in 10.0 mi NE 10.4 mph - N/A   Clear
3:15 PM 71.6 °F 39.2 °F 31% 30.02 in 10.0 mi East 6.9 mph - N/A   Clear
3:35 PM 71.6 °F 39.2 °F 31% 30.02 in 10.0 mi East 6.9 mph - N/A   Clear
3:55 PM 71.6 °F 37.4 °F 29% 30.02 in 10.0 mi ENE 5.8 mph - N/A   Clear
4:15 PM 71.6 °F 39.2 °F 31% 30.02 in 10.0 mi East 9.2 mph - N/A   Clear
4:35 PM 71.6 °F 39.2 °F 31% 30.02 in 10.0 mi East 5.8 mph - N/A   Clear
4:55 PM 69.8 °F 42.8 °F 38% 30.01 in 10.0 mi East 6.9 mph - N/A   Clear
5:15 PM 69.8 °F 39.2 °F 33% 30.01 in 10.0 mi East 6.9 mph - N/A   Clear
5:35 PM 69.8 °F 39.2 °F 33% 30.01 in 10.0 mi East 6.9 mph - N/A   Clear
5:55 PM 69.8 °F 39.2 °F 33% 30.01 in 10.0 mi ENE 5.8 mph - N/A   Clear
6:15 PM 68.0 °F 39.2 °F 35% 30.00 in 10.0 mi ENE 4.6 mph - N/A   Clear
6:35 PM 68.0 °F 39.2 °F 35% 30.00 in 10.0 mi East 6.9 mph - N/A   Clear
6:55 PM 66.2 °F 39.2 °F 37% 30.00 in 10.0 mi East 6.9 mph - N/A   Clear
7:15 PM 66.2 °F 37.4 °F 35% 29.99 in 10.0 mi East 9.2 mph - N/A   Clear
7:35 PM 66.2 °F 37.4 °F 35% 29.99 in 10.0 mi East 10.4 mph - N/A   Clear
7:55 PM 66.2 °F 37.4 °F 35% 29.99 in 10.0 mi East 11.5 mph - N/A   Clear
8:15 PM 64.4 °F 39.2 °F 40% 29.98 in 10.0 mi East 8.1 mph - N/A   Clear
8:55 PM 64.4 °F 39.2 °F 40% 29.99 in 10.0 mi East 9.2 mph - N/A   Scattered Clouds
9:15 PM 62.6 °F 39.2 °F 42% 29.99 in 10.0 mi East 11.5 mph 16.1 mph N/A   Scattered Clouds
9:35 PM 62.6 °F 39.2 °F 42% 29.99 in 10.0 mi East 11.5 mph - N/A   Scattered Clouds
9:55 PM 60.8 °F 39.2 °F 45% 30.00 in 10.0 mi East 9.2 mph - N/A   Scattered Clouds
10:15 PM 60.8 °F 39.2 °F 45% 30.01 in 10.0 mi East 10.4 mph 16.1 mph N/A   Clear
10:35 PM 60.8 °F 37.4 °F 42% 30.01 in 10.0 mi East 10.4 mph - N/A   Clear
10:55 PM 60.8 °F 35.6 °F 39% 30.01 in 10.0 mi East 12.7 mph 16.1 mph N/A   Clear
11:15 PM 60.8 °F 35.6 °F 39% 30.03 in 10.0 mi East 12.7 mph 16.1 mph N/A   Clear
11:35 PM 60.8 °F 33.8 °F 36% 30.02 in 10.0 mi East 12.7 mph - N/A   Scattered Clouds
11:55 PM 60.8 °F 33.8 °F 36% 30.02 in 10.0 mi East 12.7 mph 16.1 mph N/A   Scattered Clouds